Location: Baia Mare
(47.6567°N, 23.5850°E)
Time: 06:13:01
(UTC+02:00)

ISS - Pass Details

Date: 08 November 2018
Orbit: 401 x 408 km, 51.6° (Epoch: 14 December)

Event Time Altitude Azimuth Distance (km) Brightness Sun altitude
Exits shadow 05:26:52 43° 355° (N) 589 -3.2 -19.2°
Maximum altitude 05:27:07 43° 9° (N) 579 -3.1 -19.2°
Drops below altitude 10° 05:30:17 10° 83° (E) 1,469 0.2 -18.7°
Sets 05:32:26 0° 90° (E) 2,331 1.7 -18.3°
